This is the latest recevied weather packets stored in our database for station/object HG5CJW-10. If no packets are shown the sender has not sent any weather packets the latest 10 day(s).
| Time | Temp. | Humidity | Pressure | Rain* | Wind** | Luminosity | Snow |
|---|---|---|---|---|---|---|---|
| 1777558796 | 16.11° C | 35% | 1043.6 hPa | - | - | - | - |
| 1777557896 | 15.56° C | 35% | 1043.5 hPa | - | - | - | - |
| 1777556996 | 15.56° C | 35% | 1043.6 hPa | - | - | - | - |
| 1777556096 | 15.56° C | 34% | 1043.9 hPa | - | - | - | - |
| 1777554296 | 15° C | 34% | 1044.3 hPa | - | - | - | - |
| 1777553396 | 15° C | 35% | 1044.5 hPa | - | - | - | - |
| 1777552496 | 15° C | 34% | 1044.7 hPa | - | - | - | - |
| 1777551596 | 14.44° C | 35% | 1044.8 hPa | - | - | - | - |
| 1777550696 | 14.44° C | 35% | 1044.9 hPa | - | - | - | - |
| 1777549796 | 14.44° C | 36% | 1044.9 hPa | - | - | - | - |
| 1777548896 | 13.89° C | 36% | 1045.1 hPa | - | - | - | - |
| 1777547996 | 13.89° C | 36% | 1045.1 hPa | - | - | - | - |
| 1777547096 | 13.33° C | 36% | 1045.1 hPa | - | - | - | - |
| 1777546196 | 12.78° C | 37% | 1045 hPa | - | - | - | - |
| 1777545289 | 12.78° C | 37% | 1045.6 hPa | - | - | - | - |
| 1777544389 | 12.22° C | 37% | 1045.6 hPa | - | - | - | - |
| 1777543489 | 12.22° C | 37% | 1045.7 hPa | - | - | - | - |
| 1777541689 | 11.11° C | 38% | 1045.9 hPa | - | - | - | - |
| 1777539889 | 10.56° C | 39% | 1045.9 hPa | - | - | - | - |
| 1777538989 | 10° C | 39% | 1045.4 hPa | - | - | - | - |
| 1777536289 | 9.44° C | 41% | 1046.2 hPa | - | - | - | - |
| 1777535389 | 8.89° C | 41% | 1046.1 hPa | - | - | - | - |
| 1777534489 | 8.33° C | 41% | 1046.1 hPa | - | - | - | - |
| 1777533589 | 7.78° C | 42% | 1045.4 hPa | - | - | - | - |
| 1777532688 | 7.78° C | 42% | 1045.7 hPa | - | - | - | - |
* Rain since midnight (hover to see other rain measurements)
** Current wind speed in m/s (hover to see current wind gust speed)